When you browse on this site, cookies collect data to enhance your experience and personalize the content and advertising you see.
Visit our Privacy Policy to learn more. By continuing to use the site, you agree to this use of cookies and data.
  • en Suisse
  • Liste des pays
  • À 7 jours
  • Température de l'eau
  • Carte satellitaire
  • Carte météo
  • Widgets météo
  • user-avatar
    Se connecter

    Météo par heure à Plesna

    Ce jour, 19 Avril, Vendredi

    Heure Température Précipitation Vent Pression Humidité
    00:00 +9°C° 0 mm 3 m/s 744 mmHg 68%
    01:00 +7°C° 0 mm 4 m/s 744 mmHg 69%
    02:00 +7°C° 0 mm 4 m/s 744 mmHg 70%
    03:00 +6°C° 0 mm 4 m/s 744 mmHg 71%
    04:00 +5°C° 0 mm 4 m/s 744 mmHg 71%
    05:00 +5°C° 0 mm 4 m/s 744 mmHg 71%
    06:00 +6°C° 0 mm 5 m/s 744 mmHg 67%
    07:00 +7°C° 0 mm 5 m/s 745 mmHg 63%
    08:00 +7°C° 0 mm 6 m/s 745 mmHg 59%
    09:00 +9°C° 0 mm 6 m/s 746 mmHg 55%
    10:00 +10°C° 0 mm 6 m/s 746 mmHg 50%
    11:00 +11°C° 0 mm 6 m/s 746 mmHg 46%
    12:00 +11°C° 0 mm 6 m/s 746 mmHg 45%
    13:00 +13°C° 0 mm 5 m/s 746 mmHg 44%
    14:00 +13°C° 0 mm 5 m/s 746 mmHg 43%
    15:00 +13°C° 0 mm 5 m/s 746 mmHg 44%
    16:00 +13°C° 0 mm 5 m/s 746 mmHg 44%
    17:00 +13°C° 0 mm 5 m/s 746 mmHg 45%
    18:00 +11°C° 0.1 mm 4 m/s 746 mmHg 52%
    19:00 +10°C° 0.1 mm 3 m/s 747 mmHg 59%
    20:00 +8°C° 0.1 mm 2 m/s 747 mmHg 66%
    21:00 +8°C° 0 mm 2 m/s 747 mmHg 69%
    22:00 +8°C° 0 mm 1 m/s 747 mmHg 73%
    23:00 +7°C° 0 mm 1 m/s 747 mmHg 76%

    Demain, 20 Avril, Samedi

    Heure Température Précipitation Vent Pression Humidité
    00:00 +7°C° 0 mm 1 m/s 747 mmHg 79%
    01:00 +7°C° 0 mm 1 m/s 747 mmHg 81%
    02:00 +5°C° 0 mm 0 m/s 747 mmHg 83%
    03:00 +5°C° 0 mm 0 m/s 747 mmHg 83%
    04:00 +6°C° 0 mm 1 m/s 747 mmHg 84%
    05:00 +5°C° 0 mm 1 m/s 747 mmHg 85%
    06:00 +7°C° 0 mm 1 m/s 747 mmHg 78%
    07:00 +8°C° 0 mm 1 m/s 747 mmHg 71%
    08:00 +10°C° 0 mm 1 m/s 747 mmHg 64%
    09:00 +11°C° 0 mm 1 m/s 747 mmHg 56%
    10:00 +13°C° 0 mm 2 m/s 746 mmHg 48%
    11:00 +14°C° 0 mm 2 m/s 746 mmHg 39%
    12:00 +14°C° 0 mm 2 m/s 746 mmHg 39%
    13:00 +14°C° 0 mm 1 m/s 745 mmHg 39%
    14:00 +15°C° 0 mm 1 m/s 745 mmHg 39%
    15:00 +14°C° 0 mm 1 m/s 745 mmHg 41%
    16:00 +14°C° 0 mm 1 m/s 744 mmHg 43%
    17:00 +14°C° 0 mm 1 m/s 744 mmHg 46%
    18:00 +13°C° 0 mm 1 m/s 744 mmHg 49%
    19:00 +12°C° 0 mm 1 m/s 744 mmHg 52%
    20:00 +12°C° 0 mm 1 m/s 744 mmHg 55%
    21:00 +11°C° 0 mm 1 m/s 743 mmHg 58%
    22:00 +10°C° 0 mm 1 m/s 743 mmHg 62%
    23:00 +10°C° 0 mm 1 m/s 743 mmHg 65%

    Après-demain, 21 Avril, Dimanche

    Heure Température Précipitation Vent Pression Humidité
    00:00 +9°C° 0 mm 1 m/s 743 mmHg 69%
    01:00 +9°C° 0 mm 1 m/s 742 mmHg 72%
    02:00 +9°C° 0 mm 1 m/s 742 mmHg 76%
    03:00 +8°C° 0.1 mm 1 m/s 742 mmHg 79%
    04:00 +8°C° 0.1 mm 1 m/s 742 mmHg 82%
    05:00 +8°C° 0.1 mm 1 m/s 742 mmHg 85%
    06:00 +9°C° 0.1 mm 1 m/s 742 mmHg 80%
    07:00 +10°C° 0.1 mm 1 m/s 742 mmHg 75%
    08:00 +11°C° 0.1 mm 1 m/s 742 mmHg 70%
    09:00 +12°C° 0.5 mm 1 m/s 742 mmHg 63%
    10:00 +14°C° 0.5 mm 1 m/s 742 mmHg 56%
    11:00 +15°C° 0.5 mm 1 m/s 742 mmHg 49%
    12:00 +15°C° 0.3 mm 2 m/s 741 mmHg 48%
    13:00 +15°C° 0.3 mm 2 m/s 741 mmHg 47%
    14:00 +16°C° 0.3 mm 3 m/s 741 mmHg 46%
    15:00 +14°C° 0.2 mm 3 m/s 741 mmHg 48%
    16:00 +14°C° 0.2 mm 3 m/s 741 mmHg 50%
    17:00 +14°C° 0.2 mm 3 m/s 741 mmHg 52%
    18:00 +13°C° 0.2 mm 3 m/s 741 mmHg 59%
    19:00 +11°C° 0.2 mm 3 m/s 741 mmHg 67%
    20:00 +8°C° 0.2 mm 4 m/s 741 mmHg 75%
    21:00 +8°C° 0 mm 4 m/s 741 mmHg 78%
    22:00 +7°C° 0 mm 4 m/s 741 mmHg 81%
    23:00 +7°C° 0 mm 4 m/s 742 mmHg 83%

    22 Avril, Lundi

    Heure Température Précipitation Vent Pression Humidité
    00:00 +7°C° 0 mm 4 m/s 742 mmHg 84%
    01:00 +6°C° 0 mm 4 m/s 742 mmHg 85%
    02:00 +6°C° 0 mm 4 m/s 742 mmHg 85%
    03:00 +6°C° 0 mm 4 m/s 742 mmHg 86%
    04:00 +6°C° 0 mm 4 m/s 742 mmHg 87%
    05:00 +5°C° 0 mm 5 m/s 743 mmHg 88%
    06:00 +6°C° 0 mm 5 m/s 743 mmHg 83%
    07:00 +7°C° 0 mm 5 m/s 744 mmHg 77%
    08:00 +8°C° 0 mm 6 m/s 744 mmHg 72%
    09:00 +9°C° 0 mm 6 m/s 744 mmHg 65%
    10:00 +10°C° 0 mm 7 m/s 745 mmHg 58%
    11:00 +12°C° 0 mm 7 m/s 745 mmHg 51%
    12:00 +12°C° 0 mm 7 m/s 745 mmHg 49%
    13:00 +14°C° 0 mm 7 m/s 745 mmHg 48%
    14:00 +14°C° 0 mm 6 m/s 745 mmHg 46%
    15:00 +14°C° 0 mm 6 m/s 745 mmHg 47%
    16:00 +14°C° 0 mm 6 m/s 745 mmHg 48%
    17:00 +14°C° 0 mm 6 m/s 745 mmHg 49%
    18:00 +12°C° 0 mm 5 m/s 745 mmHg 52%
    19:00 +10°C° 0 mm 5 m/s 745 mmHg 56%
    20:00 +9°C° 0 mm 5 m/s 746 mmHg 59%
    21:00 +8°C° 0 mm 5 m/s 746 mmHg 59%
    22:00 +7°C° 0 mm 5 m/s 746 mmHg 59%
    23:00 +7°C° 0 mm 5 m/s 746 mmHg 59%

    23 Avril, Mardi

    Heure Température Précipitation Vent Pression Humidité
    00:00 +6°C° 0 mm 5 m/s 746 mmHg 60%
    01:00 +6°C° 0 mm 4 m/s 746 mmHg 61%
    02:00 +6°C° 0 mm 4 m/s 746 mmHg 62%
    03:00 +5°C° 0 mm 4 m/s 746 mmHg 64%
    04:00 +5°C° 0 mm 4 m/s 747 mmHg 66%
    05:00 +5°C° 0 mm 4 m/s 747 mmHg 68%
    06:00 +6°C° 0 mm 5 m/s 747 mmHg 63%
    07:00 +8°C° 0 mm 6 m/s 747 mmHg 58%
    08:00 +9°C° 0 mm 7 m/s 748 mmHg 53%
    09:00 +10°C° 0 mm 7 m/s 748 mmHg 50%
    10:00 +11°C° 0 mm 7 m/s 748 mmHg 46%
    11:00 +12°C° 0 mm 8 m/s 748 mmHg 43%
    12:00 +13°C° 0 mm 8 m/s 747 mmHg 43%
    13:00 +13°C° 0 mm 8 m/s 747 mmHg 42%
    14:00 +15°C° 0 mm 8 m/s 746 mmHg 42%
    15:00 +15°C° 0 mm 7 m/s 746 mmHg 43%
    16:00 +15°C° 0 mm 7 m/s 746 mmHg 45%
    17:00 +14°C° 0 mm 7 m/s 746 mmHg 46%
    18:00 +13°C° 0 mm 6 m/s 746 mmHg 51%
    19:00 +11°C° 0 mm 6 m/s 746 mmHg 55%
    20:00 +10°C° 0 mm 5 m/s 746 mmHg 60%
    21:00 +9°C° 0 mm 5 m/s 746 mmHg 60%
    22:00 +9°C° 0 mm 5 m/s 746 mmHg 60%
    23:00 +8°C° 0 mm 5 m/s 746 mmHg 61%

    24 Avril, Mercredi

    Heure Température Précipitation Vent Pression Humidité
    00:00 +7°C° 0 mm 5 m/s 746 mmHg 61%
    01:00 +7°C° 0 mm 5 m/s 746 mmHg 61%
    02:00 +6°C° 0 mm 5 m/s 746 mmHg 61%
    03:00 +6°C° 0 mm 5 m/s 746 mmHg 60%
    04:00 +6°C° 0 mm 5 m/s 746 mmHg 60%
    05:00 +5°C° 0 mm 6 m/s 746 mmHg 59%
    06:00 +6°C° 0 mm 7 m/s 746 mmHg 56%
    07:00 +8°C° 0 mm 7 m/s 746 mmHg 54%
    08:00 +9°C° 0 mm 8 m/s 747 mmHg 52%
    09:00 +11°C° 0 mm 8 m/s 747 mmHg 50%
    10:00 +12°C° 0 mm 8 m/s 747 mmHg 47%
    11:00 +13°C° 0 mm 8 m/s 747 mmHg 45%
    12:00 +15°C° 0 mm 8 m/s 747 mmHg 45%
    13:00 +15°C° 0 mm 7 m/s 746 mmHg 45%
    14:00 +16°C° 0 mm 7 m/s 746 mmHg 44%
    15:00 +16°C° 0 mm 7 m/s 746 mmHg 45%
    16:00 +15°C° 0 mm 7 m/s 746 mmHg 47%
    17:00 +15°C° 0 mm 6 m/s 745 mmHg 48%
    18:00 +14°C° 0 mm 5 m/s 746 mmHg 54%
    19:00 +12°C° 0 mm 5 m/s 746 mmHg 60%
    20:00 +11°C° 0 mm 4 m/s 746 mmHg 66%
    21:00 +10°C° 0 mm 4 m/s 746 mmHg 67%
    22:00 +10°C° 0 mm 4 m/s 746 mmHg 68%
    23:00 +8°C° 0 mm 4 m/s 746 mmHg 69%
    Voir plus